QPF
0.01 0.01 0.01 0.01 0.01 0.01 0.01 0.01 0.01 0.02 0.02 0.02 0.01 0.01 0.02 0.02 0.03 0.03 0.03 0.04 0.04 0.04 0.04 0.04 0.03 0.03 0.03 0.04 0.04 0.03 0.03 0.04 0.04 0.03 0.02 0.03 0.03 0.04 0.05 0.04 0.03 0.03 0.02
0.02 0.01 0.01 0.01 0.01 0.01 0.02 0.02 0.02 0.02 0.02 0.01 0.02 0.02 0.02 0.02 0.02 0.03 0.03 0.04 0.04 0.05 0.05 0.04 0.04 0.03 0.04 0.04 0.04 0.04 0.04 0.04 0.04 0.04 0.03 0.03 0.03 0.03 0.03 0.03 0.02 0.02 0.02
0.02 0.01 0.01 0.01 0.02 0.02 0.02 0.02 0.02 0.02 0.02 0.02 0.01 0.02 0.02 0.02 0.02 0.02 0.03 0.04 0.04 0.05 0.05 0.04 0.03 0.03 0.04 0.04 0.04 0.04 0.04 0.04 0.05 0.05 0.04 0.03 0.03 0.02 0.02 0.02 0.02 0.02 0.01
0.02 0.01 0.01 0.01 0.01 0.01 0.02 0.02 0.02 0.03 0.03 0.03 0.01 0.01 0.01 0.01 0.02 0.02 0.03 0.04 0.04 0.04 0.04 0.04 0.04 0.04 0.04 0.03 0.03 0.04 0.04 0.05 0.05 0.05 0.05 0.04 0.03 0.03 0.03 0.03 0.02 0.02 0.02
0.02 0.02 0.02 0.01 0.01 0.01 0.02 0.02 0.03 0.03 0.03 0.03 0.02 0.02 0.01 0.02 0.02 0.02 0.03 0.05 0.05 0.05 0.05 0.04 0.04 0.04 0.04 0.04 0.04 0.04 0.04 0.05 0.06 0.06 0.05 0.04 0.03 0.03 0.03 0.02 0.02 0.03 0.03
0.01 0.02 0.02 0.02 0.02 0.02 0.02 0.02 0.03 0.03 0.03 0.03 0.02 0.02 0.02 0.02 0.02 0.03 0.03 0.04 0.06 0.06 0.06 0.05 0.05 0.05 0.04 0.04 0.04 0.04 0.04 0.05 0.05 0.05 0.05 0.04 0.04 0.03 0.03 0.03 0.03 0.04 0.03
0.01 0.01 0.01 0.01 0.01 0.01 0.01 0.02 0.02 0.02 0.02 0.02 0.02 0.02 0.02 0.02 0.03 0.03 0.04 0.04 0.05 0.06 0.07 0.06 0.06 0.05 0.05 0.05 0.05 0.06 0.06 0.06 0.05 0.05 0.04 0.04 0.04 0.03 0.03 0.03 0.03 0.03 0.03
0.01 0.01 0.01 0.01 0.01 0.01 0.01 0.01 0.01 0.02 0.02 0.02 0.02 0.02 0.02 0.02 0.03 0.04 0.04 0.04 0.04 0.05 0.06 0.06 0.06 0.06 0.05 0.06 0.06 0.06 0.06 0.05 0.05 0.04 0.04 0.03 0.03 0.03 0.03 0.03 0.03 0.03 0.04
0.01 0.01 0.01 0.01 0.01 0.01 0.01 0.01 0.01 0.02 0.02 0.02 0.02 0.02 0.02 0.02 0.03 0.03 0.04 0.04 0.04 0.05 0.05 0.06 0.06 0.07 0.07 0.07 0.07 0.06 0.05 0.05 0.04 0.04 0.04 0.03 0.03 0.03 0.03 0.04 0.04 0.04 0.04
0.01 0.01 0.01 0.01 0.01 0.02 0.02 0.02 0.02 0.02 0.02 0.02 0.02 0.02 0.02 0.02 0.02 0.02 0.03 0.03 0.03 0.04 0.05 0.05 0.07 0.06 0.06 0.06 0.07 0.06 0.06 0.05 0.04 0.03 0.03 0.03 0.03 0.03 0.03 0.03 0.03 0.03 0.03
0.01 0.01 0.01 0.01 0.01 0.02 0.02 0.03 0.03 0.02 0.02 0.02 0.02 0.02 0.02 0.02 0.02 0.02 0.03 0.03 0.03 0.03 0.03 0.04 0.05 0.06 0.06 0.05 0.05 0.06 0.06 0.05 0.05 0.04 0.04 0.04 0.04 0.04 0.04 0.04 0.04 0.03 0.03
0.01 0.01 0.01 0.01 0.01 0.01 0.01 0.01 0.02 0.03 0.03 0.02 0.02 0.02 0.02 0.02 0.02 0.02 0.02 0.03 0.03 0.03 0.03 0.03 0.04 0.05 0.05 0.05 0.05 0.06 0.05 0.05 0.05 0.06 0.05 0.05 0.04 0.04 0.04 0.04 0.04 0.04 0.03
0.00 0.01 0.01 0.01 0.01 0.01 0.01 0.01 0.01 0.02 0.02 0.02 0.02 0.02 0.02 0.02 0.02 0.02 0.02 0.03 0.03 0.03 0.03 0.04 0.04 0.04 0.04 0.04 0.05 0.05 0.04 0.04 0.05 0.05 0.04 0.04 0.04 0.04 0.04 0.04 0.05 0.04 0.04
0.01 0.01 0.01 0.01 0.01 0.01 0.01 0.01 0.01 0.01 0.01 0.01 0.01 0.02 0.02 0.01 0.01 0.02 0.02 0.02 0.02 0.02 0.03 0.04 0.04 0.04 0.04 0.04 0.04 0.04 0.04 0.04 0.04 0.04 0.03 0.03 0.03 0.04 0.04 0.04 0.04 0.04 0.04
0.01 0.01 0.01 0.01 0.01 0.01 0.01 0.01 0.01 0.01 0.01 0.02 0.02 0.01 0.01 0.02 0.02 0.02 0.02 0.02 0.02 0.02 0.03 0.03 0.03 0.03 0.03 0.03 0.03 0.03 0.04 0.04 0.04 0.04 0.04 0.03 0.03 0.03 0.04 0.04 0.04 0.04 0.04
0.01 0.01 0.01 0.01 0.01 0.01 0.01 0.01 0.02 0.02 0.02 0.02 0.02 0.02 0.02 0.02 0.02 0.02 0.02 0.02 0.02 0.02 0.02 0.02 0.02 0.02 0.02 0.02 0.02 0.03 0.03 0.03 0.03 0.04 0.04 0.03 0.03 0.03 0.03 0.03 0.04 0.04 0.03
0.01 0.01 0.01 0.01 0.01 0.01 0.01 0.01 0.01 0.01 0.02 0.02 0.02 0.02 0.02 0.02 0.02 0.02 0.02 0.02 0.01 0.02 0.02 0.02 0.02 0.02 0.02 0.02 0.02 0.02 0.03 0.03 0.03 0.03 0.03 0.03 0.03 0.03 0.03 0.03 0.03 0.04 0.03
0.00 0.01 0.01 0.01 0.01 0.01 0.01 0.01 0.01 0.01 0.01 0.01 0.01 0.02 0.02 0.02 0.01 0.01 0.02 0.02 0.02 0.02 0.02 0.02 0.02 0.02 0.02 0.02 0.02 0.02 0.02 0.03 0.03 0.03 0.03 0.03 0.03 0.04 0.04 0.03 0.03 0.03 0.02
0.00 0.00 0.01 0.01 0.01 0.01 0.01 0.01 0.01 0.01 0.01 0.01 0.01 0.01 0.01 0.01 0.01 0.01 0.01 0.02 0.02 0.02 0.02 0.02 0.02 0.02 0.02 0.02 0.02 0.02 0.02 0.02 0.02 0.02 0.03 0.03 0.03 0.03 0.03 0.03 0.03 0.02 0.02
0.01 0.01 0.01 0.01 0.01 0.01 0.01 0.01 0.01 0.01 0.01 0.01 0.01 0.01 0.01 0.01 0.01 0.01 0.01 0.01 0.01 0.01 0.02 0.02 0.02 0.02 0.02 0.02 0.02 0.02 0.02 0.02 0.02 0.02 0.02 0.02 0.02 0.03 0.02 0.02 0.02 0.02 0.02
0.01 0.01 0.01 0.01 0.01 0.01 0.01 0.01 0.01 0.01 0.01 0.01 0.01 0.01 0.01 0.01 0.01 0.01 0.01 0.01 0.01 0.01 0.01 0.01 0.01 0.02 0.02 0.02 0.02 0.02 0.02 0.02 0.02 0.02 0.02 0.02 0.02 0.02 0.02 0.02 0.02 0.02 0.02
0.01 0.01 0.01 0.01 0.01 0.01 0.01 0.01 0.01 0.01 0.01 0.01 0.01 0.01 0.01 0.01 0.01 0.01 0.01 0.01 0.01 0.01 0.01 0.01 0.01 0.01 0.01 0.02 0.02 0.02 0.02 0.02 0.02 0.02 0.02 0.02 0.02 0.02 0.02 0.02 0.02 0.02 0.02
0.01 0.01 0.01 0.01 0.01 0.01 0.01 0.01 0.01 0.01 0.01 0.01 0.01 0.01 0.01 0.01 0.01 0.01 0.01 0.01 0.01 0.01 0.01 0.01 0.01 0.01 0.01 0.01 0.01 0.01 0.02 0.01 0.02 0.02 0.02 0.02 0.02 0.02 0.02 0.02 0.02 0.02 0.02
0.01 0.01 0.01 0.02 0.02 0.02 0.02 0.02 0.02 0.01 0.01 0.01 0.01 0.01 0.01 0.01 0.01 0.01 0.01 0.01 0.01 0.01 0.01 0.01 0.01 0.01 0.01 0.01 0.01 0.01 0.01 0.01 0.02 0.02 0.02 0.02 0.02 0.02 0.02 0.02 0.01 0.02 0.02
0.02 0.02 0.02 0.02 0.02 0.02 0.02 0.02 0.02 0.02 0.02 0.02 0.02 0.02 0.02 0.01 0.01 0.01 0.01 0.01 0.01 0.01 0.01 0.01 0.01 0.01 0.01 0.01 0.01 0.01 0.01 0.01 0.01 0.02 0.02 0.02 0.01 0.01 0.01 0.01 0.01 0.02 0.02
0.02 0.02 0.03 0.03 0.03 0.03 0.03 0.03 0.03 0.02 0.02 0.02 0.02 0.02 0.02 0.01 0.01 0.01 0.01 0.01 0.01 0.01 0.01 0.01 0.01 0.01 0.01 0.01 0.01 0.01 0.01 0.01 0.01 0.01 0.01 0.01 0.01 0.01 0.01 0.01 0.01 0.01 0.01
MSLP
1025.33 1025.66 1025.91 1026.04 1026.01 1025.84 1025.53 1025.12 1024.62 1024.08 1023.52 1022.96 1022.40 1021.84 1021.27 1020.69 1020.10 1019.50 1018.90 1018.31 1017.73 1017.17 1016.61 1016.04 1015.45 1014.81 1014.13 1013.40 1012.64 1011.89 1011.17 1010.52 1009.95 1009.48 1009.11 1008.80 1008.53 1008.27 1007.99 1007.69 1007.36 1007.02 1006.70
1025.02 1025.38 1025.66 1025.83 1025.86 1025.74 1025.50 1025.14 1024.71 1024.22 1023.70 1023.17 1022.63 1022.08 1021.53 1020.96 1020.40 1019.83 1019.28 1018.74 1018.23 1017.73 1017.23 1016.73 1016.18 1015.59 1014.95 1014.26 1013.54 1012.82 1012.14 1011.51 1010.97 1010.53 1010.16 1009.85 1009.56 1009.27 1008.94 1008.58 1008.17 1007.75 1007.35
1024.67 1025.04 1025.35 1025.55 1025.62 1025.57 1025.39 1025.11 1024.75 1024.33 1023.86 1023.38 1022.87 1022.35 1021.81 1021.27 1020.72 1020.18 1019.67 1019.18 1018.71 1018.27 1017.83 1017.38 1016.90 1016.37 1015.78 1015.15 1014.49 1013.83 1013.20 1012.63 1012.13 1011.71 1011.36 1011.04 1010.73 1010.39 1010.01 1009.57 1009.08 1008.56 1008.06
1024.32 1024.70 1025.01 1025.23 1025.34 1025.34 1025.24 1025.03 1024.75 1024.41 1024.02 1023.59 1023.12 1022.63 1022.13 1021.60 1021.08 1020.56 1020.07 1019.61 1019.18 1018.78 1018.39 1017.99 1017.56 1017.09 1016.58 1016.01 1015.43 1014.85 1014.29 1013.78 1013.34 1012.96 1012.62 1012.30 1011.97 1011.59 1011.15 1010.64 1010.08 1009.47 1008.87
1024.01 1024.38 1024.68 1024.92 1025.06 1025.11 1025.06 1024.94 1024.74 1024.48 1024.17 1023.81 1023.40 1022.96 1022.48 1021.98 1021.47 1020.97 1020.50 1020.05 1019.64 1019.27 1018.90 1018.54 1018.15 1017.74 1017.28 1016.79 1016.28 1015.78 1015.29 1014.85 1014.46 1014.12 1013.81 1013.49 1013.15 1012.75 1012.28 1011.73 1011.11 1010.44 1009.77
1023.77 1024.12 1024.42 1024.66 1024.82 1024.91 1024.92 1024.87 1024.75 1024.58 1024.35 1024.06 1023.71 1023.31 1022.87 1022.40 1021.90 1021.42 1020.94 1020.50 1020.10 1019.73 1019.37 1019.02 1018.66 1018.28 1017.87 1017.44 1016.99 1016.55 1016.13 1015.74 1015.40 1015.09 1014.80 1014.50 1014.16 1013.76 1013.28 1012.72 1012.09 1011.40 1010.70
1023.62 1023.95 1024.24 1024.48 1024.66 1024.78 1024.85 1024.86 1024.82 1024.72 1024.56 1024.34 1024.06 1023.70 1023.30 1022.85 1022.37 1021.89 1021.41 1020.96 1020.55 1020.17 1019.81 1019.46 1019.10 1018.73 1018.34 1017.94 1017.53 1017.13 1016.75 1016.41 1016.09 1015.81 1015.54 1015.25 1014.92 1014.54 1014.07 1013.53 1012.92 1012.26 1011.57
1023.55 1023.88 1024.17 1024.41 1024.61 1024.76 1024.87 1024.94 1024.95 1024.92 1024.82 1024.66 1024.42 1024.11 1023.73 1023.31 1022.84 1022.36 1021.89 1021.43 1021.00 1020.60 1020.23 1019.86 1019.49 1019.12 1018.74 1018.34 1017.94 1017.56 1017.19 1016.86 1016.55 1016.27 1016.00 1015.72 1015.40 1015.04 1014.61 1014.11 1013.55 1012.95 1012.31
1023.53 1023.87 1024.17 1024.43 1024.64 1024.82 1024.97 1025.07 1025.14 1025.15 1025.10 1024.97 1024.77 1024.49 1024.15 1023.74 1023.29 1022.82 1022.35 1021.89 1021.46 1021.04 1020.65 1020.27 1019.89 1019.50 1019.10 1018.70 1018.30 1017.90 1017.52 1017.18 1016.85 1016.56 1016.27 1015.98 1015.66 1015.31 1014.91 1014.46 1013.96 1013.43 1012.87
1023.54 1023.89 1024.21 1024.49 1024.73 1024.93 1025.11 1025.24 1025.33 1025.37 1025.35 1025.25 1025.07 1024.82 1024.49 1024.10 1023.68 1023.23 1022.77 1022.32 1021.90 1021.49 1021.09 1020.71 1020.32 1019.92 1019.51 1019.10 1018.68 1018.26 1017.86 1017.48 1017.12 1016.79 1016.46 1016.14 1015.80 1015.44 1015.06 1014.64 1014.19 1013.72 1013.23
1023.51 1023.90 1024.24 1024.54 1024.81 1025.04 1025.24 1025.40 1025.50 1025.56 1025.54 1025.45 1025.28 1025.04 1024.73 1024.36 1023.96 1023.55 1023.13 1022.72 1022.32 1021.94 1021.57 1021.20 1020.82 1020.43 1020.02 1019.60 1019.16 1018.72 1018.29 1017.87 1017.47 1017.08 1016.70 1016.33 1015.94 1015.55 1015.15 1014.73 1014.30 1013.86 1013.42
1023.44 1023.85 1024.22 1024.55 1024.85 1025.11 1025.33 1025.50 1025.61 1025.66 1025.64 1025.55 1025.38 1025.14 1024.85 1024.51 1024.15 1023.78 1023.41 1023.06 1022.72 1022.40 1022.08 1021.75 1021.41 1021.04 1020.65 1020.23 1019.79 1019.34 1018.88 1018.42 1017.97 1017.52 1017.08 1016.63 1016.18 1015.73 1015.27 1014.81 1014.36 1013.91 1013.48
1023.30 1023.73 1024.13 1024.50 1024.83 1025.11 1025.35 1025.53 1025.64 1025.69 1025.66 1025.55 1025.38 1025.14 1024.87 1024.56 1024.25 1023.94 1023.64 1023.37 1023.11 1022.87 1022.62 1022.36 1022.08 1021.76 1021.40 1021.00 1020.57 1020.11 1019.63 1019.14 1018.64 1018.14 1017.63 1017.10 1016.57 1016.04 1015.50 1014.96 1014.44 1013.94 1013.46
1023.13 1023.57 1023.99 1024.38 1024.74 1025.05 1025.31 1025.50 1025.61 1025.65 1025.61 1025.50 1025.31 1025.08 1024.82 1024.55 1024.29 1024.05 1023.84 1023.66 1023.50 1023.36 1023.20 1023.02 1022.81 1022.55 1022.24 1021.87 1021.45 1021.00 1020.51 1020.00 1019.46 1018.90 1018.33 1017.73 1017.11 1016.48 1015.84 1015.21 1014.59 1013.99 1013.43
1022.93 1023.37 1023.81 1024.23 1024.62 1024.96 1025.24 1025.44 1025.56 1025.60 1025.55 1025.43 1025.24 1025.02 1024.78 1024.55 1024.35 1024.18 1024.06 1023.97 1023.92 1023.87 1023.81 1023.72 1023.58 1023.38 1023.11 1022.77 1022.37 1021.92 1021.43 1020.90 1020.33 1019.73 1019.11 1018.44 1017.75 1017.03 1016.29 1015.55 1014.82 1014.11 1013.44
1022.72 1023.17 1023.63 1024.07 1024.48 1024.86 1025.16 1025.39 1025.52 1025.56 1025.52 1025.39 1025.21 1025.00 1024.79 1024.60 1024.45 1024.36 1024.32 1024.33 1024.36 1024.41 1024.43 1024.41 1024.33 1024.18 1023.94 1023.62 1023.24 1022.79 1022.28 1021.74 1021.15 1020.53 1019.87 1019.16 1018.42 1017.63 1016.81 1015.97 1015.13 1014.31 1013.51
1022.53 1022.97 1023.44 1023.91 1024.35 1024.76 1025.10 1025.35 1025.51 1025.57 1025.53 1025.41 1025.25 1025.05 1024.87 1024.72 1024.62 1024.59 1024.63 1024.71 1024.83 1024.95 1025.04 1025.07 1025.03 1024.90 1024.68 1024.36 1023.97 1023.51 1022.99 1022.43 1021.83 1021.20 1020.52 1019.79 1019.02 1018.20 1017.33 1016.42 1015.50 1014.57 1013.66
1022.32 1022.77 1023.24 1023.73 1024.21 1024.65 1025.02 1025.31 1025.50 1025.58 1025.56 1025.47 1025.32 1025.15 1025.00 1024.89 1024.84 1024.86 1024.96 1025.10 1025.28 1025.45 1025.58 1025.65 1025.62 1025.49 1025.26 1024.93 1024.51 1024.03 1023.49 1022.91 1022.30 1021.67 1020.99 1020.28 1019.51 1018.68 1017.80 1016.87 1015.90 1014.90 1013.90
1022.06 1022.50 1022.99 1023.50 1024.00 1024.48 1024.88 1025.21 1025.43 1025.55 1025.56 1025.49 1025.37 1025.23 1025.11 1025.04 1025.03 1025.10 1025.24 1025.44 1025.65 1025.85 1026.01 1026.08 1026.06 1025.92 1025.66 1025.29 1024.84 1024.32 1023.76 1023.16 1022.55 1021.92 1021.27 1020.58 1019.84 1019.05 1018.19 1017.27 1016.29 1015.27 1014.21
1021.72 1022.15 1022.64 1023.16 1023.68 1024.18 1024.62 1024.98 1025.24 1025.39 1025.44 1025.41 1025.32 1025.22 1025.14 1025.10 1025.14 1025.24 1025.42 1025.64 1025.89 1026.11 1026.27 1026.34 1026.30 1026.14 1025.85 1025.45 1024.96 1024.41 1023.81 1023.21 1022.59 1021.98 1021.35 1020.71 1020.03 1019.29 1018.49 1017.62 1016.66 1015.65 1014.57
1021.27 1021.69 1022.17 1022.68 1023.21 1023.73 1024.19 1024.58 1024.87 1025.05 1025.14 1025.15 1025.11 1025.04 1025.00 1025.01 1025.07 1025.21 1025.42 1025.67 1025.93 1026.16 1026.32 1026.39 1026.34 1026.15 1025.84 1025.41 1024.89 1024.31 1023.71 1023.09 1022.48 1021.89 1021.30 1020.71 1020.10 1019.43 1018.70 1017.89 1017.00 1016.02 1014.96
1020.72 1021.11 1021.57 1022.06 1022.58 1023.10 1023.57 1023.97 1024.29 1024.51 1024.64 1024.69 1024.69 1024.67 1024.67 1024.71 1024.81 1024.98 1025.21 1025.47 1025.75 1025.99 1026.15 1026.22 1026.16 1025.97 1025.65 1025.21 1024.68 1024.10 1023.49 1022.88 1022.29 1021.72 1021.18 1020.64 1020.09 1019.50 1018.85 1018.12 1017.29 1016.37 1015.35
1020.15 1020.49 1020.89 1021.35 1021.85 1022.34 1022.81 1023.22 1023.55 1023.79 1023.95 1024.04 1024.09 1024.11 1024.15 1024.23 1024.36 1024.55 1024.80 1025.08 1025.36 1025.60 1025.78 1025.86 1025.81 1025.63 1025.32 1024.90 1024.39 1023.82 1023.23 1022.64 1022.08 1021.54 1021.04 1020.55 1020.06 1019.54 1018.96 1018.30 1017.55 1016.69 1015.73
1019.64 1019.91 1020.26 1020.67 1021.12 1021.58 1022.02 1022.42 1022.76 1023.02 1023.21 1023.33 1023.41 1023.47 1023.54 1023.64 1023.79 1024.00 1024.26 1024.54 1024.82 1025.07 1025.26 1025.35 1025.32 1025.18 1024.90 1024.52 1024.05 1023.53 1022.98 1022.43 1021.90 1021.41 1020.94 1020.50 1020.05 1019.58 1019.07 1018.47 1017.78 1016.99 1016.09
1019.31 1019.51 1019.79 1020.14 1020.54 1020.95 1021.36 1021.74 1022.07 1022.33 1022.53 1022.67 1022.78 1022.86 1022.95 1023.07 1023.23 1023.43 1023.68 1023.95 1024.22 1024.46 1024.65 1024.76 1024.76 1024.65 1024.44 1024.11 1023.71 1023.25 1022.76 1022.27 1021.79 1021.34 1020.91 1020.50 1020.09 1019.66 1019.18 1018.64 1018.01 1017.28 1016.45
1019.29 1019.42 1019.64 1019.92 1020.26 1020.62 1020.98 1021.32 1021.63 1021.88 1022.08 1022.23 1022.34 1022.43 1022.52 1022.63 1022.77 1022.95 1023.16 1023.40 1023.64 1023.86 1024.04 1024.15 1024.18 1024.11 1023.95 1023.70 1023.37 1022.99 1022.58 1022.16 1021.74 1021.33 1020.94 1020.55 1020.17 1019.76 1019.32 1018.81 1018.23 1017.56 1016.79
Thickness
5503 5504 5503 5502 5502 5502 5502 5502 5501 5500 5499 5497 5496 5494 5492 5490 5489 5488 5487 5487 5486 5485 5484 5483 5483 5481 5479 5477 5475 5473 5471 5468 5468 5469 5466 5464 5462 5460 5458 5456 5454 5452 5450
5494 5494 5494 5493 5493 5493 5493 5493 5492 5492 5491 5489 5487 5486 5485 5483 5482 5481 5480 5479 5479 5478 5478 5476 5475 5473 5471 5470 5467 5466 5464 5462 5460 5459 5457 5454 5453 5451 5449 5447 5445 5443 5441
5484 5484 5484 5484 5484 5484 5484 5483 5483 5483 5482 5480 5479 5478 5477 5476 5475 5474 5473 5472 5471 5471 5471 5469 5468 5465 5464 5462 5460 5458 5457 5455 5453 5451 5449 5446 5444 5441 5439 5438 5436 5434 5432
5474 5474 5474 5474 5474 5474 5474 5474 5474 5473 5473 5472 5470 5469 5469 5468 5467 5466 5465 5464 5463 5462 5462 5461 5460 5458 5456 5454 5453 5451 5448 5446 5444 5441 5439 5436 5434 5432 5429 5428 5427 5425 5423
5462 5463 5463 5463 5463 5463 5463 5463 5463 5463 5463 5462 5461 5460 5460 5459 5458 5457 5456 5456 5455 5454 5453 5452 5452 5450 5449 5446 5445 5443 5440 5438 5435 5432 5430 5428 5425 5422 5421 5418 5416 5414 5413
5451 5451 5451 5451 5451 5452 5452 5452 5452 5452 5452 5451 5451 5450 5450 5450 5450 5449 5448 5446 5446 5445 5444 5444 5443 5441 5440 5438 5437 5435 5432 5430 5428 5425 5423 5421 5420 5416 5412 5408 5404 5402 5402
5440 5440 5439 5438 5439 5440 5440 5440 5440 5441 5440 5440 5440 5440 5440 5440 5440 5440 5438 5437 5436 5436 5435 5434 5433 5432 5429 5428 5427 5425 5422 5420 5420 5418 5415 5414 5411 5408 5403 5399 5395 5392 5391
5427 5427 5427 5426 5426 5427 5428 5428 5428 5428 5427 5427 5427 5428 5429 5429 5429 5429 5428 5427 5426 5425 5424 5424 5422 5421 5419 5417 5416 5414 5412 5410 5408 5406 5405 5404 5400 5397 5393 5390 5386 5381 5378
5414 5414 5413 5413 5414 5414 5415 5416 5415 5415 5415 5415 5415 5415 5416 5417 5417 5417 5417 5415 5415 5414 5413 5412 5411 5410 5409 5407 5405 5403 5401 5399 5396 5394 5393 5391 5388 5385 5381 5376 5372 5368 5367
5402 5402 5401 5401 5402 5402 5403 5403 5403 5403 5403 5403 5402 5402 5403 5404 5405 5405 5405 5403 5402 5402 5401 5401 5400 5399 5398 5396 5393 5391 5389 5388 5385 5382 5380 5378 5375 5373 5370 5366 5363 5358 5355
5389 5389 5389 5390 5390 5390 5390 5391 5391 5391 5390 5390 5390 5389 5390 5390 5391 5392 5392 5390 5390 5389 5388 5387 5387 5386 5385 5384 5382 5379 5378 5375 5371 5370 5368 5366 5363 5360 5358 5355 5353 5350 5346
5375 5376 5376 5377 5377 5377 5377 5378 5378 5378 5378 5377 5377 5377 5377 5377 5378 5379 5378 5378 5377 5376 5376 5374 5373 5373 5372 5370 5369 5367 5365 5361 5358 5357 5355 5353 5351 5348 5346 5343 5342 5339 5337
5362 5363 5363 5364 5364 5364 5365 5365 5365 5365 5365 5365 5364 5364 5364 5364 5364 5365 5365 5364 5364 5363 5362 5361 5360 5359 5357 5356 5355 5353 5350 5348 5346 5345 5344 5342 5338 5336 5333 5331 5329 5327 5326
5349 5350 5351 5351 5351 5351 5352 5353 5353 5353 5352 5352 5352 5352 5352 5351 5351 5350 5350 5349 5349 5348 5347 5345 5344 5343 5342 5341 5339 5338 5336 5335 5333 5332 5331 5329 5326 5323 5321 5319 5316 5314 5312
5336 5337 5337 5338 5338 5339 5339 5339 5340 5341 5341 5341 5341 5340 5339 5340 5340 5339 5336 5335 5334 5333 5331 5329 5328 5327 5326 5325 5323 5322 5321 5320 5319 5318 5317 5315 5313 5310 5308 5305 5302 5301 5299
5323 5325 5325 5325 5325 5325 5325 5325 5327 5328 5329 5329 5329 5328 5328 5329 5328 5327 5325 5323 5321 5319 5316 5315 5313 5312 5311 5310 5309 5308 5307 5306 5305 5305 5303 5302 5300 5297 5294 5292 5290 5289 5287
5309 5311 5311 5312 5311 5311 5311 5312 5312 5313 5314 5315 5315 5315 5316 5315 5314 5313 5311 5309 5307 5305 5301 5300 5298 5296 5295 5294 5293 5293 5293 5292 5291 5291 5290 5289 5286 5284 5281 5280 5278 5277 5276
5295 5297 5298 5298 5298 5298 5298 5298 5298 5299 5300 5300 5300 5301 5302 5301 5301 5299 5297 5295 5292 5290 5287 5285 5284 5282 5281 5280 5279 5278 5278 5278 5277 5277 5277 5275 5273 5271 5269 5267 5266 5265 5264
5282 5284 5285 5285 5285 5286 5285 5286 5286 5286 5286 5286 5286 5286 5286 5286 5286 5285 5283 5279 5277 5275 5273 5272 5270 5269 5268 5267 5266 5265 5265 5264 5264 5264 5264 5262 5261 5259 5257 5256 5255 5254 5253
5269 5271 5273 5273 5273 5273 5273 5272 5272 5272 5272 5272 5272 5271 5271 5270 5269 5268 5266 5265 5263 5262 5261 5259 5258 5256 5255 5254 5254 5253 5252 5252 5252 5252 5251 5250 5249 5248 5247 5245 5244 5242 5241
5256 5258 5260 5261 5261 5260 5260 5259 5259 5259 5259 5259 5259 5259 5260 5257 5256 5254 5253 5252 5251 5250 5249 5248 5246 5245 5243 5242 5241 5241 5241 5241 5241 5241 5240 5239 5237 5236 5236 5235 5233 5232 5231
5242 5244 5245 5247 5247 5247 5246 5246 5246 5246 5246 5246 5246 5245 5247 5244 5242 5241 5240 5240 5239 5239 5237 5236 5235 5234 5233 5232 5231 5230 5230 5231 5231 5231 5230 5228 5227 5226 5224 5223 5222 5221 5220
5229 5229 5231 5232 5233 5233 5233 5232 5232 5232 5233 5233 5233 5232 5232 5231 5230 5230 5229 5229 5228 5227 5226 5225 5224 5224 5224 5223 5222 5222 5221 5222 5222 5221 5220 5219 5217 5216 5214 5213 5212 5210 5209
5215 5216 5216 5217 5218 5219 5219 5219 5219 5219 5219 5219 5219 5219 5220 5220 5220 5219 5219 5218 5217 5217 5216 5215 5215 5214 5214 5213 5213 5213 5213 5213 5212 5212 5212 5210 5209 5207 5205 5204 5202 5201 5199
5201 5201 5202 5203 5204 5205 5205 5206 5206 5206 5206 5207 5207 5207 5208 5208 5209 5208 5208 5207 5207 5206 5206 5206 5205 5205 5205 5205 5205 5204 5204 5204 5203 5203 5203 5202 5201 5199 5197 5195 5193 5191 5190
5187 5188 5188 5189 5189 5190 5191 5192 5194 5194 5195 5195 5196 5196 5196 5197 5197 5197 5197 5197 5197 5196 5196 5196 5196 5196 5196 5196 5196 5196 5196 5196 5196 5196 5195 5194 5192 5190 5188 5186 5185 5183 5181